| time (UTC) | temp C | wind direction | speed KPH | gust KPH | rain 1hr cm | rain 24hr cm | rain mn cm | humidity % | barometer mb |
| 20260507191930 | 17 | 101 | 4.8 | 8.0 | 0.00 | 0.00 | 0.00 | 75 | 1018.0 |
| 20260507191426 | 17 | 280 | 6.4 | 11.3 | 0.00 | 0.00 | 0.00 | 73 | 1018.9 |
| 20260507190922 | 17 | 30 | 9.7 | 11.3 | 0.00 | 0.00 | 0.00 | 74 | 1018.2 |
| 20260507190420 | 17 | 117 | 0.0 | 0.0 | 0.00 | 0.00 | 0.00 | 77 | 1018.2 |
| 20260507185919 | 17 | 128 | 0.0 | 0.0 | 0.00 | 0.00 | 0.00 | 77 | 1018.2 |
| 20260507185416 | 17 | 123 | 0.0 | 0.0 | 0.00 | 0.00 | 0.00 | 77 | 1018.1 |
| 20260507184913 | 17 | 120 | 3.2 | 3.2 | 0.00 | 0.00 | 0.00 | 76 | 1018.0 |
| 20260507184410 | 17 | 133 | 0.0 | 3.2 | 0.00 | 0.00 | 0.00 | 73 | 1018.3 |
| 20260507183908 | 17 | 142 | 1.6 | 3.2 | 0.00 | 0.00 | 0.00 | 75 | 1018.7 |
| 20260507183404 | 17 | 140 | 0.0 | 3.2 | 0.00 | 0.00 | 0.00 | 76 | 1019.0 |
| 20260507182902 | 17 | 73 | 0.0 | 0.0 | 0.00 | 0.00 | 0.00 | 76 | 1018.7 |
| 20260507182357 | 17 | 120 | 3.2 | 4.8 | 0.00 | 0.00 | 0.00 | 75 | 1019.1 |
| 20260507181854 | 17 | 99 | 3.2 | 4.8 | 0.00 | 0.00 | 0.00 | 73 | 1019.0 |
| 20260507181350 | 17 | 154 | 9.7 | 14.5 | 0.00 | 0.00 | 0.00 | 73 | 1018.9 |
| 20260507180847 | 17 | 119 | 4.8 | 11.3 | 0.00 | 0.00 | 0.00 | 76 | 1017.5 |
| 20260507180344 | 17 | 126 | 3.2 | 4.8 | 0.00 | 0.00 | 0.00 | 76 | 1018.0 |
| 20260507175839 | 16 | 69 | 3.2 | 4.8 | 0.00 | 0.00 | 0.00 | 75 | 1018.5 |
| 20260507175337 | 16 | 124 | 3.2 | 4.8 | 0.00 | 0.00 | 0.00 | 76 | 1019.3 |
| 20260507174834 | 16 | 103 | 6.4 | 8.0 | 0.00 | 0.00 | 0.00 | 75 | 1018.7 |
| 20260507174331 | 16 | 101 | 4.8 | 4.8 | 0.00 | 0.00 | 0.00 | 75 | 1018.0 |
| 20260507173829 | 16 | 75 | 4.8 | 8.0 | 0.00 | 0.00 | 0.00 | 76 | 1019.0 |
| 20260507173326 | 16 | 349 | 8.0 | 11.3 | 0.00 | 0.00 | 0.00 | 76 | 1019.5 |
| 20260507172822 | 16 | 113 | 3.2 | 4.8 | 0.00 | 0.00 | 0.00 | 77 | 1019.0 |
| 20260507172319 | 16 | 126 | 3.2 | 4.8 | 0.00 | 0.00 | 0.00 | 77 | 1018.6 |
| 20260507171814 | 16 | 138 | 1.6 | 3.2 | 0.00 | 0.00 | 0.00 | 77 | 1018.2 |
| 20260507171312 | 16 | 53 | 6.4 | 8.0 | 0.00 | 0.00 | 0.00 | 76 | 1018.7 |
| 20260507170809 | 16 | 127 | 3.2 | 4.8 | 0.00 | 0.00 | 0.00 | 76 | 1019.4 |
| 20260507170305 | 16 | 195 | 3.2 | 4.8 | 0.00 | 0.00 | 0.00 | 76 | 1019.8 |
| 20260507165801 | 16 | 283 | 11.3 | 16.1 | 0.00 | 0.00 | 0.00 | 77 | 1020.1 |
| 20260507165257 | 16 | 60 | 6.4 | 8.0 | 0.00 | 0.00 | 0.00 | 76 | 1019.9 |
| 20260507164753 | 16 | 78 | 3.2 | 4.8 | 0.00 | 0.00 | 0.00 | 76 | 1019.5 |
| 20260507164251 | 16 | 204 | 6.4 | 8.0 | 0.00 | 0.00 | 0.00 | 76 | 1019.7 |
| 20260507163748 | 16 | 147 | 3.2 | 3.2 | 0.00 | 0.00 | 0.00 | 77 | 1019.1 |
| 20260507163245 | 16 | 334 | 11.3 | 14.5 | 0.00 | 0.00 | 0.00 | 76 | 1020.7 |
| 20260507162741 | 16 | 66 | 3.2 | 4.8 | 0.00 | 0.00 | 0.00 | 77 | 1019.6 |
| 20260507162237 | 16 | 105 | 3.2 | 4.8 | 0.00 | 0.00 | 0.00 | 76 | 1019.8 |
| 20260507161734 | 16 | 114 | 0.0 | 3.2 | 0.00 | 0.00 | 0.00 | 78 | 1020.1 |
| 20260507161231 | 15 | 143 | 1.6 | 3.2 | 0.00 | 0.00 | 0.00 | 77 | 1019.5 |
| 20260507160726 | 16 | 122 | 3.2 | 3.2 | 0.00 | 0.00 | 0.00 | 77 | 1019.6 |
| 20260507160223 | 15 | 129 | 0.0 | 3.2 | 0.00 | 0.00 | 0.00 | 78 | 1019.7 |
| 20260507155719 | 15 | 105 | 1.6 | 3.2 | 0.00 | 0.00 | 0.00 | 78 | 1019.2 |
| 20260507155215 | 15 | 135 | 0.0 | 3.2 | 0.00 | 0.00 | 0.00 | 78 | 1019.6 |
| 20260507154712 | 15 | 259 | 11.3 | 14.5 | 0.00 | 0.00 | 0.00 | 77 | 1019.6 |
| 20260507154210 | 15 | 74 | 8.0 | 11.3 | 0.00 | 0.00 | 0.00 | 78 | 1020.1 |
| 20260507153707 | 15 | 108 | 4.8 | 4.8 | 0.00 | 0.00 | 0.00 | 79 | 1019.8 |
| 20260507153203 | 15 | 87 | 8.0 | 11.3 | 0.00 | 0.00 | 0.00 | 78 | 1019.2 |
| 20260507152659 | 15 | 66 | 9.7 | 14.5 | 0.00 | 0.00 | 0.00 | 78 | 1019.6 |
| 20260507152155 | 15 | 58 | 4.8 | 4.8 | 0.00 | 0.00 | 0.00 | 79 | 1019.6 |
| 20260507151651 | 15 | 38 | 9.7 | 11.3 | 0.00 | 0.00 | 0.00 | 81 | 1019.3 |
| 20260507151148 | 15 | 61 | 4.8 | 8.0 | 0.00 | 0.00 | 0.00 | 81 | 1019.5 |
| 20260507150645 | 15 | 62 | 9.7 | 14.5 | 0.00 | 0.00 | 0.00 | 82 | 1018.9 |
| 20260507150142 | 14 | 50 | 6.4 | 11.3 | 0.00 | 0.00 | 0.00 | 83 | 1018.6 |
| 20260507145637 | 14 | 87 | 4.8 | 8.0 | 0.00 | 0.00 | 0.00 | 83 | 1018.7 |
| 20260507145135 | 14 | 60 | 9.7 | 16.1 | 0.00 | 0.00 | 0.00 | 82 | 1019.1 |
| 20260507144631 | 14 | 66 | 8.0 | 11.3 | 0.00 | 0.00 | 0.00 | 83 | 1019.6 |
| 20260507144130 | 14 | 84 | 6.4 | 11.3 | 0.00 | 0.00 | 0.00 | 83 | 1020.0 |
| 20260507143626 | 14 | 128 | 4.8 | 8.0 | 0.00 | 0.00 | 0.00 | 83 | 1019.5 |
| 20260507143123 | 14 | 95 | 6.4 | 11.3 | 0.00 | 0.00 | 0.00 | 83 | 1019.4 |
| 20260507142618 | 14 | 355 | 9.7 | 14.5 | 0.00 | 0.00 | 0.00 | 83 | 1019.4 |
| 20260507142116 | 14 | 183 | 6.4 | 8.0 | 0.00 | 0.00 | 0.00 | 83 | 1019.2 |
| 20260507141612 | 14 | 173 | 9.7 | 11.3 | 0.00 | 0.00 | 0.00 | 83 | 1019.1 |
| 20260507141109 | 14 | 111 | 9.7 | 16.1 | 0.00 | 0.00 | 0.00 | 83 | 1019.2 |
| 20260507140605 | 14 | 120 | 3.2 | 4.8 | 0.00 | 0.00 | 0.00 | 84 | 1018.4 |
| 20260507135559 | 14 | 42 | 14.5 | 22.5 | 0.00 | 0.00 | 0.00 | 82 | 1019.1 |
| 20260507135057 | 15 | 56 | 8.0 | 11.3 | 0.00 | 0.00 | 0.00 | 82 | 1019.7 |
| 20260507134553 | 15 | 41 | 14.5 | 22.5 | 0.00 | 0.00 | 0.00 | 82 | 1019.8 |
| 20260507134049 | 15 | 12 | 4.8 | 8.0 | 0.00 | 0.00 | 0.00 | 84 | 1019.8 |
| 20260507133545 | 14 | 78 | 11.3 | 16.1 | 0.00 | 0.00 | 0.00 | 84 | 1019.7 |
| 20260507133043 | 14 | 251 | 6.4 | 8.0 | 0.00 | 0.00 | 0.00 | 85 | 1019.6 |
| 20260507132540 | 14 | 78 | 3.2 | 4.8 | 0.00 | 0.00 | 0.00 | 84 | 1019.5 |
| 20260507132036 | 14 | 67 | 6.4 | 8.0 | 0.00 | 0.00 | 0.00 | 84 | 1019.3 |
| 20260507131533 | 14 | 74 | 8.0 | 11.3 | 0.00 | 0.00 | 0.00 | 83 | 1019.2 |
| 20260507131030 | 14 | 81 | 8.0 | 14.5 | 0.00 | 0.00 | 0.00 | 83 | 1019.3 |
| 20260507130527 | 14 | 59 | 8.0 | 8.0 | 0.00 | 0.00 | 0.00 | 83 | 1019.6 |
| 20260507130026 | 14 | 338 | 14.5 | 22.5 | 0.00 | 0.00 | 0.00 | 84 | 1019.3 |
| 20260507125524 | 14 | 48 | 8.0 | 11.3 | 0.00 | 0.00 | 0.00 | 85 | 1019.2 |
| 20260507125021 | 14 | 301 | 11.3 | 14.5 | 0.00 | 0.00 | 0.00 | 86 | 1019.1 |
| 20260507124517 | 14 | 42 | 16.1 | 19.3 | 0.00 | 0.00 | 0.00 | 86 | 1019.0 |
| 20260507124015 | 15 | 355 | 12.9 | 16.1 | 0.00 | 0.00 | 0.00 | 87 | 1018.5 |
| 20260507123513 | 15 | 316 | 8.0 | 8.0 | 0.00 | 0.00 | 0.00 | 87 | 1018.5 |
| 20260507123010 | 15 | 68 | 6.4 | 8.0 | 0.00 | 0.00 | 0.00 | 87 | 1018.5 |
| 20260507122504 | 15 | 134 | 4.8 | 8.0 | 0.00 | 0.00 | 0.00 | 87 | 1018.5 |
| 20260507122001 | 15 | 89 | 8.0 | 11.3 | 0.00 | 0.00 | 0.00 | 87 | 1018.4 |
| 20260507121456 | 15 | 63 | 6.4 | 11.3 | 0.00 | 0.00 | 0.00 | 87 | 1018.4 |
| 20260507120953 | 15 | 357 | 4.8 | 8.0 | 0.00 | 0.00 | 0.00 | 87 | 1018.2 |
| 20260507120449 | 15 | 10 | 9.7 | 11.3 | 0.00 | 0.00 | 0.00 | 87 | 1018.4 |
| 20260507115946 | 15 | 130 | 8.0 | 11.3 | 0.00 | 0.00 | 0.00 | 87 | 1018.3 |
| 20260507115442 | 15 | 137 | 9.7 | 16.1 | 0.00 | 0.00 | 0.00 | 87 | 1018.2 |
| 20260507114938 | 15 | 11 | 8.0 | 11.3 | 0.00 | 0.00 | 0.00 | 88 | 1018.4 |
| 20260507114434 | 15 | 64 | 9.7 | 14.5 | 0.00 | 0.00 | 0.00 | 88 | 1018.3 |
| 20260507113932 | 15 | 68 | 8.0 | 11.3 | 0.00 | 0.00 | 0.00 | 88 | 1018.1 |
| 20260507113428 | 15 | 79 | 9.7 | 19.3 | 0.00 | 0.00 | 0.00 | 89 | 1018.0 |
| 20260507112926 | 15 | 344 | 9.7 | 14.5 | 0.00 | 0.00 | 0.00 | 89 | 1017.9 |
| 20260507112423 | 15 | 13 | 9.7 | 11.3 | 0.00 | 0.00 | 0.00 | 90 | 1017.8 |
| 20260507111920 | 15 | 342 | 11.3 | 14.5 | 0.00 | 0.00 | 0.00 | 89 | 1018.1 |
| 20260507111418 | 15 | 325 | 12.9 | 16.1 | 0.00 | 0.00 | 0.00 | 88 | 1018.0 |
| 20260507110914 | 15 | 345 | 12.9 | 14.5 | 0.00 | 0.00 | 0.00 | 87 | 1017.8 |
| 20260507110410 | 15 | 324 | 8.0 | 16.1 | 0.00 | 0.00 | 0.00 | 86 | 1017.5 |
| 20260507105907 | 15 | 92 | 11.3 | 16.1 | 0.00 | 0.00 | 0.00 | 86 | 1017.5 |
| 20260507105403 | 15 | 352 | 6.4 | 11.3 | 0.00 | 0.00 | 0.00 | 86 | 1017.4 |
| 20260507104900 | 15 | 10 | 12.9 | 16.1 | 0.00 | 0.00 | 0.00 | 87 | 1017.6 |
| 20260507104357 | 15 | 20 | 17.7 | 19.3 | 0.00 | 0.00 | 0.00 | 88 | 1017.8 |
| 20260507103853 | 15 | 16 | 12.9 | 19.3 | 0.00 | 0.00 | 0.00 | 89 | 1017.6 |
| 20260507103350 | 15 | 3 | 11.3 | 14.5 | 0.00 | 0.00 | 0.00 | 88 | 1017.3 |
| 20260507102846 | 15 | 14 | 17.7 | 22.5 | 0.00 | 0.00 | 0.00 | 90 | 1017.8 |
| 20260507102342 | 15 | 334 | 14.5 | 22.5 | 0.00 | 0.00 | 0.00 | 91 | 1018.0 |
| 20260507101839 | 15 | 325 | 8.0 | 11.3 | 0.00 | 0.00 | 0.00 | 91 | 1017.9 |
| 20260507101333 | 15 | 332 | 9.7 | 16.1 | 0.00 | 0.00 | 0.00 | 91 | 1017.9 |
| 20260507100831 | 15 | 355 | 11.3 | 16.1 | 0.00 | 0.00 | 0.00 | 90 | 1018.1 |
| 20260507100328 | 15 | 23 | 11.3 | 14.5 | 0.00 | 0.00 | 0.00 | 90 | 1017.5 |
| 20260507095826 | 15 | 358 | 8.0 | 11.3 | 0.00 | 0.00 | 0.00 | 90 | 1017.1 |
| 20260507095322 | 15 | 40 | 3.2 | 4.8 | 0.00 | 0.00 | 0.00 | 90 | 1017.1 |
| 20260507094820 | 15 | 49 | 4.8 | 8.0 | 0.00 | 0.00 | 0.00 | 91 | 1017.7 |
| 20260507094316 | 15 | 18 | 9.7 | 14.5 | 0.00 | 0.00 | 0.00 | 91 | 1017.9 |
| 20260507093813 | 15 | 106 | 3.2 | 4.8 | 0.00 | 0.00 | 0.00 | 91 | 1017.2 |
| 20260507093312 | 15 | 123 | 1.6 | 3.2 | 0.00 | 0.00 | 0.00 | 91 | 1017.2 |
| 20260507092809 | 15 | 350 | 11.3 | 16.1 | 0.00 | 0.00 | 0.00 | 91 | 1016.5 |
| 20260507092307 | 15 | 56 | 3.2 | 4.8 | 0.00 | 0.00 | 0.00 | 91 | 1017.1 |
| 20260507091802 | 15 | 43 | 4.8 | 4.8 | 0.00 | 0.00 | 0.00 | 92 | 1017.1 |
| 20260507091259 | 15 | 6 | 6.4 | 8.0 | 0.00 | 0.00 | 0.00 | 92 | 1016.9 |
| 20260507090759 | 15 | 137 | 4.8 | 8.0 | 0.00 | 0.00 | 0.00 | 92 | 1017.1 |
| 20260507090256 | 15 | 139 | 1.6 | 3.2 | 0.00 | 0.00 | 0.00 | 92 | 1016.7 |
| 20260507085753 | 15 | 69 | 3.2 | 4.8 | 0.00 | 0.00 | 0.00 | 92 | 1016.6 |
| 20260507085250 | 15 | 134 | 3.2 | 4.8 | 0.00 | 0.00 | 0.00 | 92 | 1016.5 |
| 20260507084747 | 15 | 80 | 3.2 | 4.8 | 0.00 | 0.00 | 0.00 | 92 | 1017.2 |
| 20260507084243 | 15 | 244 | 6.4 | 8.0 | 0.00 | 0.00 | 0.00 | 92 | 1016.4 |
| 20260507083741 | 15 | 82 | 4.8 | 4.8 | 0.00 | 0.00 | 0.00 | 92 | 1016.6 |
| 20260507083237 | 15 | 112 | 0.0 | 0.0 | 0.00 | 0.00 | 0.00 | 92 | 1016.7 |
| 20260507082733 | 15 | 134 | 0.0 | 0.0 | 0.00 | 0.00 | 0.00 | 91 | 1016.2 |
| 20260507082229 | 15 | 51 | 4.8 | 8.0 | 0.00 | 0.00 | 0.00 | 91 | 1015.5 |
| 20260507081726 | 15 | 124 | 6.4 | 8.0 | 0.00 | 0.00 | 0.00 | 91 | 1016.0 |
| 20260507081222 | 15 | 130 | 0.0 | 3.2 | 0.00 | 0.00 | 0.00 | 91 | 1016.5 |
| 20260507080719 | 15 | 81 | 6.4 | 11.3 | 0.00 | 0.00 | 0.00 | 91 | 1016.0 |
| 20260507080215 | 15 | 103 | 1.6 | 3.2 | 0.00 | 0.00 | 0.00 | 91 | 1015.8 |
| 20260507075711 | 15 | 71 | 6.4 | 11.3 | 0.00 | 0.00 | 0.00 | 91 | 1016.0 |
| 20260507075207 | 15 | 71 | 9.7 | 16.1 | 0.00 | 0.00 | 0.00 | 90 | 1016.1 |
| 20260507074703 | 15 | 138 | 3.2 | 4.8 | 0.00 | 0.00 | 0.00 | 90 | 1016.0 |
| 20260507074202 | 15 | 96 | 3.2 | 4.8 | 0.00 | 0.00 | 0.00 | 90 | 1016.2 |
| 20260507073658 | 15 | 140 | 3.2 | 3.2 | 0.00 | 0.00 | 0.00 | 90 | 1016.1 |
| 20260507073154 | 15 | 109 | 1.6 | 3.2 | 0.00 | 0.00 | 0.00 | 90 | 1016.1 |
| 20260507072652 | 15 | 88 | 3.2 | 3.2 | 0.00 | 0.00 | 0.00 | 90 | 1016.1 |
| 20260507072149 | 15 | 86 | 9.7 | 11.3 | 0.00 | 0.00 | 0.00 | 90 | 1015.7 |
| 20260507071647 | 15 | 88 | 8.0 | 14.5 | 0.00 | 0.00 | 0.00 | 90 | 1015.6 |
| 20260507071143 | 15 | 68 | 11.3 | 14.5 | 0.00 | 0.00 | 0.00 | 89 | 1015.6 |
| 20260507070640 | 15 | 40 | 6.4 | 8.0 | 0.00 | 0.00 | 0.00 | 89 | 1016.1 |
| 20260507070137 | 15 | 61 | 6.4 | 8.0 | 0.00 | 0.00 | 0.00 | 89 | 1016.1 |
| 20260507065633 | 15 | 65 | 3.2 | 3.2 | 0.00 | 0.00 | 0.00 | 89 | 1016.2 |
| 20260507065130 | 15 | 80 | 3.2 | 4.8 | 0.00 | 0.00 | 0.00 | 89 | 1016.1 |
| 20260507064628 | 15 | 78 | 4.8 | 8.0 | 0.00 | 0.00 | 0.00 | 89 | 1016.3 |
| 20260507064127 | 15 | 84 | 3.2 | 4.8 | 0.00 | 0.00 | 0.00 | 89 | 1016.3 |
| 20260507063624 | 15 | 100 | 6.4 | 8.0 | 0.00 | 0.00 | 0.00 | 88 | 1016.3 |
| 20260507063121 | 15 | 93 | 6.4 | 8.0 | 0.00 | 0.00 | 0.00 | 88 | 1016.2 |
| 20260507062618 | 15 | 71 | 4.8 | 4.8 | 0.00 | 0.00 | 0.00 | 88 | 1016.4 |
| 20260507062115 | 15 | 78 | 6.4 | 8.0 | 0.00 | 0.00 | 0.00 | 88 | 1016.3 |
| 20260507061613 | 15 | 93 | 3.2 | 4.8 | 0.00 | 0.00 | 0.00 | 88 | 1016.0 |
| 20260507061110 | 15 | 130 | 4.8 | 4.8 | 0.00 | 0.00 | 0.00 | 88 | 1016.1 |
| 20260507060608 | 15 | 107 | 1.6 | 3.2 | 0.00 | 0.00 | 0.00 | 88 | 1016.0 |
| 20260507060104 | 15 | 54 | 11.3 | 14.5 | 0.00 | 0.00 | 0.00 | 88 | 1015.7 |
| 20260507055559 | 15 | 91 | 4.8 | 4.8 | 0.00 | 0.00 | 0.00 | 87 | 1015.8 |
| 20260507055056 | 15 | 62 | 8.0 | 11.3 | 0.00 | 0.00 | 0.00 | 87 | 1016.0 |
| 20260507054552 | 15 | 123 | 4.8 | 4.8 | 0.00 | 0.00 | 0.00 | 86 | 1016.1 |
| 20260507054049 | 15 | 44 | 6.4 | 14.5 | 0.00 | 0.00 | 0.00 | 86 | 1016.2 |
| 20260507053547 | 15 | 127 | 6.4 | 11.3 | 0.00 | 0.00 | 0.00 | 86 | 1016.3 |
| 20260507053046 | 15 | 109 | 0.0 | 0.0 | 0.00 | 0.00 | 0.00 | 86 | 1016.0 |
| 20260507052543 | 15 | 105 | 4.8 | 8.0 | 0.00 | 0.00 | 0.00 | 86 | 1015.8 |
| 20260507052039 | 16 | 70 | 9.7 | 14.5 | 0.00 | 0.00 | 0.00 | 85 | 1016.0 |
| 20260507051537 | 16 | 111 | 4.8 | 4.8 | 0.00 | 0.00 | 0.00 | 85 | 1016.3 |
| 20260507051034 | 16 | 43 | 6.4 | 11.3 | 0.00 | 0.00 | 0.00 | 85 | 1016.4 |
| 20260507050530 | 16 | 52 | 4.8 | 8.0 | 0.00 | 0.00 | 0.00 | 85 | 1016.6 |
| 20260507050027 | 16 | 129 | 3.2 | 8.0 | 0.00 | 0.03 | 0.03 | 85 | 1016.5 |
| 20260507045524 | 16 | 59 | 11.3 | 14.5 | 0.00 | 0.03 | 0.03 | 85 | 1016.1 |
| 20260507045021 | 16 | 25 | 6.4 | 8.0 | 0.00 | 0.03 | 0.03 | 85 | 1016.1 |
| 20260507044518 | 16 | 118 | 8.0 | 14.5 | 0.00 | 0.03 | 0.03 | 85 | 1016.2 |
| 20260507044014 | 16 | 124 | 3.2 | 4.8 | 0.00 | 0.03 | 0.03 | 86 | 1016.3 |
| 20260507043510 | 16 | 135 | 3.2 | 3.2 | 0.00 | 0.03 | 0.03 | 86 | 1016.6 |
| 20260507043008 | 16 | 130 | 3.2 | 3.2 | 0.00 | 0.03 | 0.03 | 86 | 1016.8 |
| 20260507042503 | 16 | 128 | 3.2 | 4.8 | 0.00 | 0.03 | 0.03 | 85 | 1016.6 |
| 20260507041959 | 16 | 73 | 6.4 | 8.0 | 0.00 | 0.03 | 0.03 | 86 | 1016.5 |
| 20260507041456 | 16 | 146 | 0.0 | 0.0 | 0.00 | 0.03 | 0.03 | 86 | 1016.6 |
| 20260507040953 | 16 | 83 | 8.0 | 8.0 | 0.00 | 0.03 | 0.03 | 86 | 1016.5 |
| 20260507040449 | 16 | 167 | 4.8 | 8.0 | 0.00 | 0.03 | 0.03 | 86 | 1016.1 |
| 20260507035945 | 16 | 330 | 6.4 | 8.0 | 0.00 | 0.03 | 0.03 | 86 | 1015.9 |
| 20260507035442 | 16 | 145 | 3.2 | 3.2 | 0.00 | 0.03 | 0.03 | 85 | 1016.2 |
| 20260507034938 | 16 | 115 | 4.8 | 4.8 | 0.00 | 0.03 | 0.03 | 86 | 1015.9 |
| 20260507034435 | 16 | 111 | 4.8 | 8.0 | 0.00 | 0.03 | 0.03 | 85 | 1016.3 |
| 20260507033934 | 16 | 117 | 1.6 | 3.2 | 0.00 | 0.03 | 0.03 | 86 | 1016.3 |
| 20260507033431 | 16 | 136 | 4.8 | 8.0 | 0.00 | 0.03 | 0.03 | 85 | 1015.9 |
| 20260507032928 | 16 | 125 | 3.2 | 3.2 | 0.00 | 0.03 | 0.03 | 85 | 1015.8 |
| 20260507032425 | 16 | 114 | 4.8 | 8.0 | 0.00 | 0.03 | 0.03 | 84 | 1015.6 |
| 20260507031921 | 16 | 124 | 4.8 | 4.8 | 0.00 | 0.03 | 0.03 | 84 | 1015.8 |
| 20260507031417 | 16 | 15 | 8.0 | 11.3 | 0.00 | 0.03 | 0.03 | 84 | 1016.2 |
| 20260507030914 | 16 | 342 | 6.4 | 8.0 | 0.00 | 0.03 | 0.03 | 85 | 1016.4 |
| 20260507030412 | 16 | 8 | 6.4 | 8.0 | 0.00 | 0.03 | 0.03 | 85 | 1016.3 |
| 20260507025908 | 16 | 178 | 4.8 | 4.8 | 0.00 | 0.03 | 0.03 | 86 | 1015.7 |
| 20260507025406 | 16 | 62 | 8.0 | 11.3 | 0.00 | 0.03 | 0.03 | 86 | 1015.3 |
| 20260507024904 | 16 | 138 | 4.8 | 4.8 | 0.00 | 0.03 | 0.03 | 86 | 1015.5 |
| 20260507024400 | 16 | 137 | 3.2 | 4.8 | 0.00 | 0.03 | 0.03 | 86 | 1015.5 |
| 20260507023856 | 16 | 339 | 8.0 | 8.0 | 0.00 | 0.03 | 0.03 | 86 | 1015.6 |
| 20260507023353 | 16 | 125 | 3.2 | 4.8 | 0.00 | 0.03 | 0.03 | 86 | 1015.5 |
| 20260507022851 | 16 | 61 | 0.0 | 0.0 | 0.00 | 0.03 | 0.03 | 85 | 1015.6 |
| 20260507022347 | 16 | 96 | 6.4 | 8.0 | 0.00 | 0.03 | 0.03 | 85 | 1015.5 |
| 20260507021843 | 16 | 4 | 8.0 | 11.3 | 0.00 | 0.03 | 0.03 | 85 | 1015.5 |
| 20260507021338 | 16 | 79 | 6.4 | 8.0 | 0.00 | 0.03 | 0.03 | 85 | 1015.4 |
| 20260507020837 | 16 | 68 | 4.8 | 4.8 | 0.00 | 0.03 | 0.03 | 85 | 1015.0 |
| 20260507020333 | 16 | 335 | 11.3 | 16.1 | 0.00 | 0.03 | 0.03 | 85 | 1015.2 |
| 20260507015830 | 16 | 281 | 8.0 | 8.0 | 0.00 | 0.03 | 0.03 | 85 | 1014.8 |
| 20260507015328 | 16 | 41 | 9.7 | 11.3 | 0.00 | 0.03 | 0.03 | 85 | 1014.8 |
| 20260507014825 | 16 | 104 | 6.4 | 8.0 | 0.00 | 0.03 | 0.03 | 85 | 1014.8 |
| 20260507014321 | 16 | 14 | 11.3 | 11.3 | 0.00 | 0.03 | 0.03 | 85 | 1014.7 |
| 20260507013818 | 16 | 359 | 9.7 | 11.3 | 0.00 | 0.03 | 0.03 | 85 | 1014.4 |
| 20260507013315 | 16 | 27 | 6.4 | 8.0 | 0.00 | 0.03 | 0.03 | 85 | 1014.5 |
| 20260507012813 | 16 | 350 | 9.7 | 14.5 | 0.00 | 0.03 | 0.03 | 85 | 1014.3 |
| 20260507012308 | 16 | 40 | 6.4 | 8.0 | 0.00 | 0.03 | 0.03 | 85 | 1014.5 |
| 20260507011806 | 16 | 31 | 8.0 | 11.3 | 0.00 | 0.03 | 0.03 | 85 | 1014.2 |
| 20260507011302 | 16 | 0 | 11.3 | 14.5 | 0.00 | 0.03 | 0.03 | 84 | 1014.2 |
| 20260507010801 | 16 | 118 | 4.8 | 4.8 | 0.00 | 0.03 | 0.03 | 85 | 1014.1 |
| 20260507010258 | 16 | 323 | 8.0 | 11.3 | 0.00 | 0.03 | 0.03 | 84 | 1014.1 |
| 20260507005755 | 16 | 24 | 8.0 | 11.3 | 0.00 | 0.03 | 0.03 | 84 | 1013.9 |
| 20260507005251 | 16 | 326 | 6.4 | 11.3 | 0.00 | 0.03 | 0.03 | 84 | 1014.2 |
| 20260507004748 | 16 | 1 | 4.8 | 4.8 | 0.00 | 0.03 | 0.03 | 84 | 1013.9 |
| 20260507004246 | 16 | 6 | 9.7 | 11.3 | 0.00 | 0.03 | 0.03 | 84 | 1013.8 |
| 20260507003742 | 16 | 356 | 8.0 | 8.0 | 0.00 | 0.03 | 0.03 | 84 | 1013.7 |
| 20260507003237 | 16 | 85 | 8.0 | 11.3 | 0.00 | 0.03 | 0.03 | 83 | 1013.4 |
| 20260507002734 | 16 | 16 | 8.0 | 11.3 | 0.00 | 0.03 | 0.03 | 83 | 1013.6 |
| 20260507002230 | 16 | 4 | 12.9 | 14.5 | 0.00 | 0.03 | 0.03 | 83 | 1013.4 |
| 20260507001727 | 16 | 38 | 17.7 | 22.5 | 0.00 | 0.03 | 0.03 | 83 | 1013.6 |
| 20260507001224 | 16 | 69 | 8.0 | 11.3 | 0.00 | 0.03 | 0.03 | 83 | 1013.5 |
| 20260507000720 | 16 | 88 | 6.4 | 8.0 | 0.00 | 0.03 | 0.03 | 84 | 1013.4 |
| 20260507000216 | 16 | 341 | 11.3 | 14.5 | 0.00 | 0.03 | 0.03 | 83 | 1013.2 |
| 20260506235713 | 16 | 340 | 9.7 | 11.3 | 0.00 | 0.03 | 0.03 | 83 | 1013.2 |
| 20260506235208 | 16 | 0 | 12.9 | 16.1 | 0.00 | 0.03 | 0.03 | 83 | 1013.5 |
| 20260506234706 | 16 | 349 | 14.5 | 16.1 | 0.00 | 0.03 | 0.03 | 83 | 1013.4 |
| 20260506234203 | 16 | 55 | 9.7 | 14.5 | 0.00 | 0.03 | 0.03 | 83 | 1013.6 |
| 20260506233700 | 16 | 356 | 14.5 | 19.3 | 0.00 | 0.03 | 0.03 | 83 | 1013.5 |
| 20260506233157 | 16 | 336 | 14.5 | 19.3 | 0.00 | 0.03 | 0.03 | 83 | 1013.5 |
| 20260506232653 | 16 | 46 | 6.4 | 8.0 | 0.00 | 0.03 | 0.03 | 83 | 1013.3 |
| 20260506232148 | 16 | 341 | 16.1 | 22.5 | 0.00 | 0.03 | 0.03 | 83 | 1013.2 |
| 20260506231646 | 16 | 44 | 11.3 | 14.5 | 0.00 | 0.03 | 0.03 | 83 | 1012.9 |
| 20260506231144 | 16 | 26 | 11.3 | 16.1 | 0.00 | 0.03 | 0.03 | 83 | 1013.2 |
| 20260506230641 | 16 | 268 | 17.7 | 24.1 | 0.00 | 0.03 | 0.03 | 83 | 1013.3 |
| 20260506230137 | 16 | 339 | 12.9 | 16.1 | 0.00 | 0.03 | 0.03 | 83 | 1013.3 |
| 20260506225634 | 16 | 43 | 12.9 | 19.3 | 0.00 | 0.03 | 0.03 | 83 | 1013.3 |
| 20260506225131 | 16 | 99 | 8.0 | 11.3 | 0.00 | 0.03 | 0.03 | 83 | 1012.9 |
| 20260506224627 | 16 | 337 | 14.5 | 19.3 | 0.00 | 0.03 | 0.03 | 83 | 1013.0 |
| 20260506224124 | 16 | 114 | 4.8 | 4.8 | 0.00 | 0.03 | 0.03 | 84 | 1013.3 |
| 20260506223620 | 16 | 359 | 6.4 | 11.3 | 0.00 | 0.03 | 0.03 | 84 | 1013.0 |
| 20260506223116 | 16 | 0 | 9.7 | 14.5 | 0.00 | 0.03 | 0.03 | 84 | 1013.3 |
| 20260506222614 | 16 | 35 | 9.7 | 16.1 | 0.00 | 0.03 | 0.03 | 83 | 1013.2 |
| 20260506222110 | 16 | 344 | 11.3 | 19.3 | 0.00 | 0.03 | 0.03 | 84 | 1013.2 |
| 20260506221608 | 16 | 353 | 22.5 | 27.4 | 0.00 | 0.03 | 0.03 | 83 | 1013.1 |
| 20260506221106 | 16 | 338 | 11.3 | 16.1 | 0.00 | 0.03 | 0.03 | 83 | 1013.2 |
| 20260506220601 | 16 | 338 | 11.3 | 14.5 | 0.00 | 0.03 | 0.03 | 84 | 1013.3 |
| 20260506220057 | 16 | 314 | 16.1 | 19.3 | 0.00 | 0.03 | 0.03 | 83 | 1013.2 |
| 20260506215554 | 16 | 45 | 6.4 | 8.0 | 0.00 | 0.03 | 0.03 | 84 | 1013.2 |
| 20260506215049 | 16 | 10 | 14.5 | 16.1 | 0.00 | 0.03 | 0.03 | 83 | 1013.2 |
| 20260506214547 | 16 | 3 | 19.3 | 24.1 | 0.00 | 0.03 | 0.03 | 83 | 1013.3 |
| 20260506214044 | 16 | 40 | 19.3 | 27.4 | 0.00 | 0.03 | 0.03 | 83 | 1013.4 |
| 20260506213542 | 16 | 324 | 14.5 | 16.1 | 0.00 | 0.03 | 0.03 | 83 | 1013.4 |
| 20260506213039 | 16 | 116 | 8.0 | 11.3 | 0.00 | 0.03 | 0.03 | 83 | 1013.3 |
| 20260506212535 | 16 | 3 | 11.3 | 14.5 | 0.00 | 0.03 | 0.03 | 82 | 1013.5 |
| 20260506212030 | 16 | 333 | 8.0 | 11.3 | 0.00 | 0.03 | 0.03 | 82 | 1013.4 |
| 20260506211526 | 17 | 118 | 11.3 | 14.5 | 0.00 | 0.03 | 0.03 | 81 | 1013.4 |
| 20260506211024 | 17 | 74 | 11.3 | 14.5 | 0.00 | 0.03 | 0.03 | 82 | 1013.5 |
| 20260506210520 | 16 | 352 | 9.7 | 14.5 | 0.00 | 0.03 | 0.03 | 81 | 1013.4 |
| 20260506210017 | 16 | 345 | 9.7 | 14.5 | 0.00 | 0.03 | 0.03 | 81 | 1013.5 |
| 20260506205514 | 17 | 22 | 19.3 | 24.1 | 0.00 | 0.03 | 0.03 | 80 | 1013.6 |
| 20260506205009 | 17 | 17 | 17.7 | 24.1 | 0.00 | 0.03 | 0.03 | 80 | 1013.6 |
| 20260506204508 | 17 | 356 | 17.7 | 19.3 | 0.00 | 0.03 | 0.03 | 80 | 1013.5 |
| 20260506204004 | 17 | 326 | 12.9 | 19.3 | 0.00 | 0.03 | 0.03 | 81 | 1013.5 |
| 20260506203502 | 17 | 322 | 19.3 | 22.5 | 0.00 | 0.03 | 0.03 | 79 | 1013.5 |
| 20260506202958 | 17 | 337 | 22.5 | 33.8 | 0.00 | 0.03 | 0.03 | 79 | 1013.6 |
| 20260506202456 | 17 | 331 | 22.5 | 33.8 | 0.00 | 0.03 | 0.03 | 79 | 1013.5 |
| 20260506201952 | 17 | 28 | 9.7 | 14.5 | 0.00 | 0.03 | 0.03 | 79 | 1013.3 |
| 20260506201449 | 17 | 352 | 16.1 | 24.1 | 0.00 | 0.03 | 0.03 | 78 | 1013.2 |
| 20260506200941 | 17 | 350 | 17.7 | 19.3 | 0.00 | 0.03 | 0.03 | 78 | 1013.2 |
| 20260506200437 | 17 | 1 | 17.7 | 24.1 | 0.00 | 0.03 | 0.03 | 79 | 1013.0 |
| 20260506195933 | 17 | 310 | 14.5 | 16.1 | 0.00 | 0.03 | 0.03 | 79 | 1013.4 |
| 20260506195431 | 18 | 325 | 22.5 | 33.8 | 0.00 | 0.03 | 0.03 | 79 | 1013.6 |
| 20260506194927 | 18 | 330 | 20.9 | 24.1 | 0.00 | 0.03 | 0.03 | 78 | 1013.3 |
| 20260506194424 | 18 | 319 | 14.5 | 24.1 | 0.00 | 0.03 | 0.03 | 79 | 1013.2 |
| 20260506193921 | 18 | 351 | 20.9 | 30.6 | 0.00 | 0.03 | 0.03 | 78 | 1013.1 |
| 20260506193418 | 18 | 346 | 19.3 | 22.5 | 0.00 | 0.03 | 0.03 | 79 | 1013.0 |
| 20260506192914 | 19 | 338 | 20.9 | 27.4 | 0.00 | 0.03 | 0.03 | 78 | 1013.0 |
| 20260506192411 | 18 | 28 | 20.9 | 24.1 | 0.00 | 0.03 | 0.03 | 79 | 1012.7 |